Location: Columbia
(38.9520°N, 92.3340°W)
Time: 01:44:37
(UTC-05:00)

Iridium 22 - Visible Passes

Search period start: 02 September 2014 00:00
Search period end: 12 September 2014 00:00
Orbit: 776 x 779 km, 86.4° (Epoch: 01 September)

Date Brightness Start Highest point End Pass type
(mag) Time Alt. Az. Time Alt. Az. Time Alt. Az.
02 Sep 8.2 00:35:34 15° NNW 00:35:34 15° NNW 00:36:27 10° N visible
03 Sep 8.1 00:02:09 16° N 00:02:09 16° N 00:03:05 10° N visible
03 Sep 8.1 23:28:43 14° NNE 23:28:43 14° NNE 23:29:23 10° NNE visible
04 Sep 8.2 22:55:17 10° NNE 22:55:17 10° NNE 22:55:18 10° NNE visible
05 Sep 8.4 00:35:45 13° NNW 00:35:45 13° NNW 00:36:17 10° NNW visible
06 Sep 8.2 00:02:18 15° N 00:02:18 15° N 00:03:07 10° N visible
06 Sep 8.1 23:28:51 14° N 23:28:51 14° N 23:29:37 10° N visible
07 Sep 8.1 22:55:24 12° NNE 22:55:24 12° NNE 22:55:47 10° NNE visible
08 Sep 8.5 00:35:52 10° NNW 00:35:52 10° NNW 00:35:55 10° NNW visible
09 Sep 8.3 00:02:25 13° NNW 00:02:25 13° NNW 00:03:02 10° NNW visible
09 Sep 8.1 23:28:57 15° N 23:28:57 15° N 23:29:44 10° N visible
10 Sep 8.0 22:55:29 13° NNE 22:55:29 13° NNE 22:56:06 10° NNE visible
11 Sep 8.1 22:22:00 11° NNE 22:22:00 11° NNE 22:22:06 10° NNE visible
